Theta_e
304 304 304 304 304 303 303 303 303 303 302 303 302 303 307 311 312 313 313 312 312 312 314 316 316 315 316 319 321 322 322 321 322 322 322 322 322 322 323 323 323 323 322 322 321 321 322 323 325 326 326 327 327 327 327 327 327 327 326 326 326 326 326 326 326 327 327 326 325 324 324 324 324 320
305 305 305 305 304 304 303 303 303 303 302 302 302 302 302 305 307 310 311 309 307 309 311 314 316 315 314 314 317 320 320 320 321 321 321 321 320 320 320 321 321 321 321 320 320 321 322 322 323 323 324 326 327 327 327 327 327 327 327 327 327 327 327 326 326 326 327 327 327 326 325 324 324 323
306 306 306 306 306 305 305 305 304 304 304 303 303 303 303 303 303 304 305 304 304 306 307 309 311 311 310 309 311 314 316 317 318 318 318 317 316 316 316 317 316 315 315 315 315 315 317 320 323 324 324 325 326 327 327 327 327 327 327 327 327 327 327 327 327 327 327 327 328 328 327 324 323 323
306 306 306 306 306 305 305 305 306 306 306 306 306 306 306 306 306 305 305 304 303 303 303 304 304 305 305 305 305 307 309 311 311 311 311 310 311 314 317 318 318 316 315 315 316 314 314 316 319 322 324 324 325 326 326 326 326 326 326 327 327 327 327 327 327 327 327 327 328 328 328 326 323 322
305 305 306 306 306 306 305 304 305 307 308 309 308 307 308 309 310 309 308 307 305 304 303 303 302 301 302 302 303 304 304 304 306 306 305 305 306 309 312 315 317 317 317 317 318 318 318 318 317 319 321 324 325 325 325 325 325 324 325 325 325 325 326 326 326 327 327 327 327 328 328 327 326 324
306 305 305 306 306 306 305 304 304 306 307 307 307 307 307 308 308 307 308 308 307 306 305 304 303 302 303 303 303 302 302 303 304 305 305 304 304 304 306 308 310 312 314 316 317 316 317 318 317 316 316 318 320 321 322 322 322 322 321 322 323 323 324 325 325 326 326 327 327 327 327 327 327 325
308 307 305 305 306 305 305 305 304 305 305 305 306 306 305 305 306 306 306 307 308 308 308 308 307 306 304 303 302 301 303 305 306 306 306 306 307 307 308 309 310 311 312 313 314 314 315 316 316 316 315 315 315 316 317 319 319 318 317 318 319 321 322 323 324 325 326 326 327 327 327 327 327 326
309 308 306 305 305 305 305 305 304 305 306 306 306 305 304 304 305 306 306 307 307 308 308 308 307 306 305 304 304 304 305 306 308 308 308 308 308 309 309 310 311 312 312 313 314 314 315 316 317 317 317 316 314 312 312 314 316 317 317 316 317 317 318 319 321 323 324 325 326 326 327 327 327 326
308 308 307 305 305 305 305 304 304 304 305 304 303 303 301 301 303 304 305 305 305 305 306 305 303 304 305 305 306 306 306 307 308 309 309 309 309 309 308 308 310 311 312 313 313 313 313 314 315 315 315 315 314 312 310 309 310 313 315 316 316 316 316 316 317 318 320 322 323 324 325 325 326 326
309 308 306 305 305 305 304 304 303 303 303 302 301 301 300 299 301 302 302 302 303 303 304 304 303 303 304 305 306 306 306 307 307 307 308 308 309 310 310 310 312 313 315 315 315 314 315 316 316 316 316 316 316 315 313 310 308 308 309 313 317 318 317 316 315 316 318 320 321 323 323 324 325 326
309 309 307 306 304 304 304 303 303 303 302 301 300 299 299 298 299 300 300 300 300 301 303 304 305 305 305 306 306 306 306 307 307 307 308 308 309 311 312 312 311 311 313 314 314 314 314 315 315 316 317 317 318 318 317 314 311 308 307 310 316 319 319 317 316 317 318 320 321 322 323 324 325 326
310 310 308 306 304 304 304 303 303 302 301 300 300 298 297 297 297 296 296 296 297 299 301 303 304 305 305 305 305 306 306 306 307 307 308 309 309 309 310 309 308 307 308 309 308 308 308 309 311 313 316 318 319 318 317 316 314 311 309 308 312 316 319 319 318 317 318 318 319 320 321 322 324 325
311 310 308 306 305 304 304 303 302 302 302 301 300 298 297 296 296 295 295 295 295 296 297 298 299 300 302 302 303 304 304 305 305 306 306 306 306 306 307 307 307 307 309 308 308 308 308 310 312 314 317 318 317 315 316 317 316 315 314 312 311 313 316 318 320 319 318 318 318 318 319 320 321 323
310 309 307 306 305 304 304 304 304 304 303 301 299 298 297 296 296 296 296 295 295 295 295 295 296 296 297 298 300 301 303 303 304 304 305 306 306 306 307 308 308 309 309 310 311 312 312 312 314 314 316 316 316 317 318 319 318 318 317 317 315 314 315 316 319 320 320 319 318 318 318 318 319 321
308 307 306 304 304 304 304 304 304 303 302 301 299 298 298 298 297 297 296 296 296 296 296 296 296 296 296 296 297 299 301 303 304 305 305 305 306 306 307 307 308 308 309 310 311 311 312 314 315 316 316 316 317 317 317 318 318 318 317 317 316 316 316 316 316 317 319 319 319 319 318 317 318 319
307 306 305 304 303 303 303 303 302 301 300 299 299 299 299 298 298 297 296 296 296 296 296 296 296 296 296 297 297 297 298 299 301 302 303 303 304 305 305 305 306 306 306 307 307 307 308 310 312 314 315 315 315 314 314 315 316 316 316 316 316 316 316 316 315 315 315 316 317 319 319 319 318 319
307 306 304 303 303 302 302 302 300 300 299 299 300 300 299 298 297 296 296 295 295 296 296 297 297 297 298 298 297 298 298 298 299 299 300 301 302 302 302 303 304 304 305 305 305 304 304 305 307 309 310 312 312 312 312 313 314 315 315 316 316 316 315 315 314 314 313 312 313 315 318 319 319 319
305 304 303 302 302 302 301 301 300 300 300 300 300 300 299 297 296 296 295 295 295 296 297 297 298 298 298 298 298 298 299 299 299 300 299 299 299 299 299 300 300 301 303 304 304 303 302 302 303 303 304 306 309 311 312 312 313 313 314 314 314 315 316 315 314 314 313 311 309 311 314 318 320 320
304 304 303 303 302 301 300 300 300 300 300 300 299 299 298 297 296 295 296 296 296 296 297 297 298 298 298 298 298 298 299 300 300 300 300 300 299 299 299 299 299 299 300 301 302 302 302 302 301 301 301 302 304 307 309 311 311 311 311 312 313 314 315 316 315 315 314 312 309 308 311 315 318 319
305 304 304 303 301 300 300 300 300 300 299 299 299 298 297 296 296 296 296 296 296 296 297 297 297 298 298 298 298 298 298 298 299 299 299 299 299 299 298 299 299 298 299 299 300 302 302 302 302 302 302 302 303 304 306 308 309 308 308 310 311 312 313 314 314 314 313 312 310 308 309 312 316 318
304 303 302 302 301 300 300 300 300 300 300 299 299 298 297 297 296 296 296 296 296 297 296 297 297 297 297 297 298 298 298 297 297 297 297 297 297 297 297 297 297 298 298 299 300 301 302 302 303 303 304 304 305 305 306 307 307 308 308 308 309 310 311 312 312 312 312 311 309 308 308 311 315 317
302 302 302 301 301 301 300 300 300 300 299 299 298 298 297 297 296 296 296 296 296 296 296 296 296 296 296 297 297 297 297 297 297 297 297 297 297 296 296 296 296 297 298 298 299 300 301 301 302 303 304 304 305 306 306 307 307 308 309 309 309 310 310 311 311 311 310 309 308 307 307 308 313 316
302 302 302 302 301 301 301 300 299 299 299 298 298 297 297 297 296 296 296 296 296 296 295 295 295 295 295 295 295 295 296 296 296 297 297 297 297 297 296 296 297 297 297 298 299 299 300 301 301 302 302 303 303 305 306 306 307 308 309 310 310 310 311 311 310 310 309 308 307 307 307 306 310 315
301 301 301 301 301 300 300 299 299 298 298 297 297 297 297 297 296 296 296 296 295 295 295 295 294 294 294 294 294 294 294 294 295 295 295 296 296 296 296 296 297 297 298 298 298 299 300 300 300 301 302 302 302 304 305 307 308 309 310 310 310 311 310 310 310 309 308 308 307 307 307 307 308 312
301 300 299 299 299 299 298 298 298 298 297 297 297 297 297 296 296 296 295 295 294 294 294 294 294 293 293 293 293 293 293 294 294 294 294 295 295 296 296 296 297 297 297 297 298 298 299 299 299 300 301 301 301 303 304 305 307 308 308 309 309 309 308 308 308 308 307 308 308 307 307 307 308 311
299 298 298 298 298 298 298 298 298 297 297 297 296 296 295 295 295 294 294 293 293 293 293 292 292 292 292 292 292 292 292 293 293 293 294 295 295 295 296 296 296 297 297 297 297 298 298 298 298 298 299 300 300 301 302 303 304 305 305 306 306 306 306 306 307 307 307 307 308 307 306 307 308 310
296 296 297 297 297 297 297 297 297 297 296 295 295 294 294 294 293 293 293 292 292 292 292 292 291 291 291 292 292 292 292 292 293 293 294 294 295 295 295 295 296 296 296 296 296 297 297 298 298 298 298 299 299 300 301 302 302 302 303 304 304 305 305 305 306 307 307 307 307 307 306 307 308 310
293 294 294 295 295 295 295 295 295 295 295 294 294 294 293 293 293 292 292 292 292 292 292 292 292 292 292 292 292 292 292 292 292 292 293 293 294 294 294 295 295 295 296 296 296 296 296 297 297 297 297 298 298 298 299 300 301 301 302 302 303 303 304 304 305 306 307 307 307 307 306 307 308 309
294 293 293 293 293 294 294 294 294 294 294 294 293 293 293 293 292 292 292 292 292 292 292 292 292 292 292 293 293 293 293 293 293 293 293 293 293 293 294 294 295 295 295 295 296 296 296 296 297 297 297 297 297 298 298 299 299 300 301 301 302 303 303 304 304 305 306 307 307 307 307 307 308 308
294 294 293 293 293 294 294 295 294 294 293 293 293 293 292 292 292 292 292 292 292 292 292 292 292 292 292 292 293 293 293 293 293 293 293 293 293 294 294 294 294 295 295 295 295 296 296 296 296 296 297 297 297 297 298 298 298 299 300 300 301 302 303 303 304 305 305 306 306 307 307 308 308 308
294 293 293 293 294 294 295 294 294 293 293 293 293 292 292 292 292 292 292 292 292 292 292 292 292 292 292 292 292 292 292 292 293 293 293 293 294 294 294 294 294 295 295 295 295 296 296 296 296 296 296 296 297 297 297 297 297 298 298 299 300 301 302 303 304 304 304 304 304 305 306 307 307 306
293 292 293 293 294 294 294 294 294 293 293 292 292 292 291 291 291 291 291 291 291 291 292 292 292 292 292 292 292 292 292 292 292 292 292 293 293 294 294 294 295 295 295 295 295 295 295 296 296 296 296 296 296 296 297 297 297 297 298 298 299 299 300 302 302 303 302 303 303 303 303 304 304 304
292 293 293 294 294 294 294 293 293 292 292 292 291 291 291 291 291 291 291 291 291 291 291 292 292 291 291 291 291 291 292 292 292 292 292 292 292 293 293 293 294 294 294 294 294 294 294 295 295 295 295 295 295 295 296 296 296 297 297 298 298 299 300 301 301 301 301 302 302 301 301 302 302 302
293 293 293 293 293 293 293 292 292 292 291 291 291 291 291 291 291 290 290 290 291 291 291 291 291 291 291 291 291 291 291 291 291 291 291 291 291 292 292 292 293 293 293 293 293 293 294 294 295 295 295 295 295 295 295 295 296 296 297 297 298 298 299 300 300 300 300 301 301 300 299 300 300 299
293 293 293 293 293 292 292 292 292 291 291 291 291 290 290 290 290 290 290 290 290 290 290 290 290 290 290 290 290 290 290 290 290 290 290 291 291 291 291 292 292 292 292 292 293 293 294 294 295 295 294 295 295 295 295 295 295 296 297 297 297 298 298 299 299 299 299 300 300 299 298 298 298 298
293 293 293 292 292 292 291 291 291 290 290 290 290 290 290 290 290 290 291 291 291 290 290 290 290 290 290 290 290 290 290 290 290 290 290 290 290 291 291 291 291 292 292 292 293 294 294 294 294 294 294 294 295 295 296 296 296 296 296 297 297 297 298 298 299 299 299 299 299 298 297 297 297 297
293 293 292 292 291 291 291 290 290 290 290 290 290 290 290 290 290 291 291 291 290 290 290 290 290 290 290 290 289 289 290 290 290 290 290 290 290 290 291 291 291 292 292 293 293 294 294 294 294 294 294 294 295 295 296 296 296 296 296 297 297 297 297 298 298 298 299 299 298 296 296 296 296 296
292 292 291 291 291 290 290 290 290 290 290 291 290 290 290 290 290 291 291 291 290 290 290 290 290 290 289 289 289 289 289 289 289 290 290 290 290 290 291 291 291 292 292 293 293 294 294 294 294 294 294 295 295 295 296 296 296 296 297 297 298 298 298 298 298 299 299 298 296 295 295 295 295 295
292 292 291 290 290 290 290 290 290 290 290 290 290 290 290 290 291 291 291 291 291 290 290 290 290 290 290 290 289 289 289 289 289 290 290 290 290 290 291 291 291 291 292 292 293 293 294 294 294 294 294 295 295 295 296 296 296 296 297 297 298 299 299 299 299 299 298 297 296 295 294 294 294 294
292 291 290 290 290 290 290 290 290 290 290 290 290 290 290 291 291 291 292 291 291 291 290 290 290 290 290 290 290 290 289 290 290 290 290 290 290 290 290 291 291 291 292 292 293 293 293 294 294 295 295 295 295 296 295 295 296 296 297 298 298 299 299 299 299 299 299 298 296 295 294 294 294 294
291 291 290 290 290 290 290 290 290 290 290 289 290 290 290 291 291 291 291 291 291 291 290 290 290 290 290 290 290 290 290 290 290 290 290 290 290 290 290 291 291 291 292 292 293 293 294 294 294 294 295 295 295 296 296 295 296 296 297 298 298 298 298 298 299 299 299 298 296 295 294 294 294 293
291 291 290 290 290 289 289 290 289 289 289 289 289 290 290 291 291 291 291 291 291 291 290 290 290 290 290 290 290 290 290 290 290 290 290 290 290 291 291 291 291 292 292 292 293 293 294 294 294 294 295 295 296 296 296 296 296 296 297 297 297 297 297 297 297 297 298 298 297 296 295 294 294 293
291 290 290 290 289 289 289 289 289 289 289 289 290 290 290 291 291 291 291 291 291 291 291 291 291 291 291 291 291 290 290 290 291 291 291 291 291 291 291 291 292 292 292 293 293 294 294 294 295 295 295 296 296 296 296 296 296 296 297 297 297 296 296 296 296 296 296 296 296 296 296 296 296 295
291 290 290 290 289 289 289 289 289 289 289 290 290 290 291 291 291 291 291 291 291 291 291 291 291 291 291 291 291 291 291 291 292 292 292 292 292 292 292 292 292 292 293 293 293 294 294 294 295 296 296 296 296 296 296 296 296 296 297 297 297 296 296 295 295 295 295 295 295 295 295 296 296 297
290 290 290 290 289 290 290 290 290 289 290 290 290 290 291 291 291 291 291 291 291 291 291 291 291 291 291 291 291 292 292 292 293 293 293 293 293 293 292 292 292 293 293 293 294 294 294 295 295 296 296 296 296 296 296 296 296 296 296 297 296 296 295 295 294 294 294 293 294 294 294 294 295 295
Wind_Speed
7 7 7 6 6 5 4 4 5 5 5 6 6 6 4 5 7 9 11 10 7 4 3 5 8 8 5 2 2 3 2 5 7 9 11 12 13 14 15 16 16 17 19 21 23 25 26 27 28 30 30 30 30 28 28 29 31 31 30 29 29 28 27 27 27 27 27 26 25 25 24 24 24 23
7 7 7 6 6 5 3 2 3 3 3 3 4 5 6 6 6 7 10 12 10 7 6 6 9 11 10 9 7 6 5 6 8 10 12 14 16 18 19 19 19 20 21 23 23 24 25 27 28 29 30 30 30 30 29 29 30 32 32 31 31 31 31 30 30 29 28 27 27 27 26 24 24 24
5 5 5 5 7 6 5 5 5 5 4 4 4 4 4 5 6 6 9 11 11 10 10 10 11 14 14 13 13 12 12 13 14 16 17 19 18 18 19 20 22 23 23 24 24 24 25 26 28 28 28 28 28 29 30 30 30 32 33 33 33 33 34 34 33 32 31 30 30 30 29 27 25 25
2 2 3 4 6 6 7 6 6 7 8 9 9 8 8 7 6 7 8 12 13 12 11 13 13 13 15 15 15 16 16 16 18 20 21 22 20 18 17 18 19 20 19 19 20 20 21 23 26 29 29 28 29 29 30 31 32 32 33 34 34 35 36 36 36 35 34 33 34 34 33 30 28 27
1 1 2 2 3 5 6 6 5 5 8 10 11 12 12 10 9 9 9 13 17 15 13 13 14 13 13 14 13 14 16 16 17 18 18 18 18 19 19 18 18 18 18 18 18 18 18 19 21 25 28 30 30 31 31 32 32 32 33 34 34 35 35 36 36 36 35 35 36 36 35 33 32 29
3 1 1 3 4 5 6 6 5 3 3 5 5 6 7 6 7 9 11 13 17 18 18 16 15 14 13 14 14 14 15 15 15 16 17 16 15 15 16 17 18 18 19 19 19 19 20 21 22 23 25 27 30 32 33 33 33 33 33 33 33 33 33 34 34 35 34 35 36 36 36 38 38 35
6 5 3 4 6 6 6 7 7 5 4 3 3 5 7 8 9 10 12 13 16 19 20 18 17 17 16 17 17 16 15 16 16 17 17 17 16 15 15 16 17 17 17 18 19 20 21 23 24 24 24 24 25 27 30 32 33 33 33 33 33 34 34 34 34 34 33 34 34 34 35 38 40 38
8 9 7 6 7 8 8 8 8 6 6 5 6 8 9 8 8 9 11 12 14 16 18 18 18 18 19 19 18 17 16 15 16 17 17 16 16 17 17 18 19 18 18 18 20 21 21 22 23 24 25 26 26 25 26 28 31 32 32 33 33 34 35 35 35 34 34 34 34 33 32 34 35 37
10 11 10 8 9 9 9 9 8 6 7 8 10 11 11 10 10 11 13 14 15 16 18 20 20 19 18 18 17 17 16 16 16 17 17 17 18 18 16 14 16 17 16 17 18 20 20 21 22 23 24 25 25 24 24 25 28 30 31 31 31 32 33 34 34 33 33 34 34 34 33 32 33 35
12 12 12 11 11 11 10 10 9 9 10 12 13 13 13 12 11 12 14 14 15 16 18 19 20 19 18 17 17 16 15 16 17 17 18 18 18 18 16 13 13 15 15 16 17 18 18 19 20 21 21 22 22 22 23 24 26 28 29 29 30 30 30 31 31 31 31 32 33 33 33 33 33 34
14 12 12 12 12 12 11 11 11 12 12 13 14 14 14 14 13 14 14 14 14 15 16 18 18 19 18 17 18 17 15 16 17 16 17 18 16 15 15 16 16 17 17 18 18 19 20 20 20 21 22 23 23 23 24 24 24 25 27 29 29 29 29 29 29 29 29 29 30 31 32 33 33 33
16 15 13 13 13 13 12 12 12 13 14 15 15 15 15 15 16 16 16 16 15 15 15 16 17 17 17 17 17 17 16 16 16 15 17 20 20 19 19 21 21 20 20 19 19 20 21 22 21 22 22 21 21 22 23 22 22 23 25 27 29 30 29 29 29 29 29 29 29 30 31 32 33 33
18 17 15 14 14 14 13 13 14 15 16 17 16 15 16 16 17 17 17 17 17 18 18 19 19 19 19 19 18 18 17 18 19 20 20 23 24 24 24 23 21 19 19 19 18 17 17 19 22 23 22 20 22 24 23 22 23 23 23 24 27 29 31 30 30 30 30 30 30 30 31 31 32 33
19 17 15 14 14 13 13 13 15 18 19 18 17 17 16 16 16 17 17 18 19 20 21 21 21 21 22 21 20 20 19 18 19 21 21 22 23 23 23 22 18 14 14 17 20 19 15 16 19 21 20 20 21 22 22 22 23 23 23 24 24 25 28 30 32 32 32 32 32 32 32 32 32 32
18 15 13 13 14 14 14 15 17 19 19 18 18 18 18 18 17 17 18 19 20 21 22 22 22 23 24 23 22 21 20 18 19 20 20 21 22 21 22 23 20 15 14 19 23 22 18 17 19 20 19 19 20 20 20 20 21 23 25 25 25 24 25 27 30 32 33 34 34 33 33 33 32 32
16 15 13 13 14 15 16 18 19 19 19 18 19 19 20 20 21 22 22 22 22 23 24 25 25 25 25 25 24 23 23 23 24 26 26 25 25 25 24 25 25 22 21 23 27 28 25 23 23 24 24 24 25 27 26 24 24 26 27 28 28 28 28 28 29 31 33 34 35 35 34 33 33 32
16 13 11 12 13 16 18 19 19 19 18 17 17 18 20 22 23 25 25 25 25 25 25 26 26 26 26 26 26 24 23 25 26 28 29 30 30 30 30 29 30 27 24 24 28 33 32 28 28 29 27 25 24 27 28 27 27 27 27 29 29 30 31 32 32 33 33 32 33 35 35 34 34 34
13 11 12 14 14 16 17 17 16 15 14 14 15 17 20 22 24 26 26 27 27 26 25 26 27 27 26 26 26 23 21 21 23 25 28 30 32 33 35 36 36 34 30 26 29 36 36 32 31 32 30 27 25 25 26 26 27 28 28 29 30 31 31 32 32 32 33 33 33 33 34 34 34 34
15 15 16 16 16 16 16 16 17 16 16 18 20 21 23 24 26 27 27 27 27 26 25 26 27 28 27 27 27 24 22 23 24 25 28 30 32 35 38 40 39 38 34 29 29 34 35 30 30 32 30 29 29 28 27 26 26 28 30 30 31 32 32 32 32 33 34 35 36 35 36 36 35 34
18 16 15 15 15 16 16 16 17 18 20 22 24 25 27 29 29 29 28 28 27 26 25 25 26 28 28 29 29 28 28 30 31 32 34 35 36 39 42 43 43 41 37 30 26 30 33 30 29 30 27 26 28 28 28 28 28 29 31 32 32 33 34 34 34 33 34 35 36 36 36 37 36 34
15 14 14 14 15 15 15 17 18 19 22 24 26 28 30 30 30 30 30 30 28 26 26 27 28 28 29 30 31 31 30 31 31 33 36 36 35 36 38 40 40 39 36 29 23 26 31 28 25 26 24 23 23 24 25 27 28 30 32 34 35 36 36 36 34 34 34 35 36 35 35 36 36 34
12 11 12 13 15 16 18 19 21 22 25 26 27 29 30 31 32 33 33 33 31 29 28 29 30 31 31 31 31 31 31 30 28 30 34 33 32 34 35 35 35 34 32 27 22 25 30 27 24 25 25 24 22 21 22 25 26 28 31 34 35 36 36 35 34 34 35 35 35 36 35 36 35 34
10 9 10 13 16 18 20 21 23 24 25 27 28 30 32 34 35 36 36 37 37 37 37 37 37 38 38 37 37 36 36 35 33 33 34 32 30 32 34 32 31 30 28 22 19 23 26 24 22 21 21 23 21 16 18 24 26 27 30 32 33 35 35 34 32 32 33 34 34 34 33 34 34 34
10 9 11 15 17 19 21 22 23 25 26 28 30 32 34 36 37 38 39 40 41 42 43 43 43 42 41 40 40 38 36 36 36 35 35 33 31 32 32 31 30 30 26 19 16 21 25 24 23 21 18 20 20 14 14 21 24 24 25 27 29 32 31 30 30 29 30 33 34 33 31 30 31 33
12 10 12 17 18 19 22 23 25 27 29 31 33 34 36 38 39 40 41 41 41 41 41 41 40 37 34 32 31 30 28 27 27 27 28 29 29 29 30 30 31 31 29 22 18 22 26 27 27 25 22 23 23 18 15 18 20 20 21 22 26 29 28 27 28 27 27 31 33 32 31 28 27 29
15 12 13 17 20 21 24 26 28 30 32 34 36 37 37 37 37 37 37 36 36 36 35 33 31 29 28 26 25 25 23 22 22 22 23 24 25 25 27 28 30 31 30 25 21 22 24 25 25 24 23 24 25 24 22 20 20 21 23 24 27 29 28 27 28 27 26 28 30 30 29 26 23 24
16 14 15 19 22 24 25 27 29 31 32 33 33 32 31 30 29 28 28 28 28 28 26 25 25 24 24 24 24 23 22 21 21 21 22 23 23 24 25 26 28 30 30 28 25 25 25 26 25 23 23 24 26 27 28 26 23 22 24 26 28 27 26 25 25 25 26 27 27 26 25 23 21 21
14 15 17 20 22 22 24 25 27 27 27 25 23 23 22 21 20 20 21 22 21 21 21 22 23 23 23 23 23 23 23 22 22 21 22 23 23 24 26 26 27 28 28 27 26 25 26 27 27 25 25 26 27 29 30 30 28 24 24 27 28 27 24 22 22 24 24 24 23 23 22 21 19 19
13 15 16 18 18 19 20 21 21 21 20 20 19 19 18 17 18 18 20 20 20 20 22 23 24 25 25 25 25 25 25 25 25 24 25 25 25 25 25 26 26 26 26 26 26 25 25 27 28 27 28 28 29 30 29 29 30 28 25 26 28 27 24 22 21 23 24 22 20 20 20 19 18 18
13 13 15 16 17 17 16 16 17 18 19 19 19 17 16 16 17 18 19 21 22 23 24 25 26 27 28 28 28 27 27 27 27 27 28 29 29 27 26 26 26 25 25 25 26 26 26 28 29 29 30 30 31 32 31 30 31 30 28 28 28 26 23 21 20 22 23 22 20 19 19 19 18 17
12 15 17 17 15 13 13 14 15 15 17 18 17 17 16 17 17 18 19 20 22 24 25 26 27 28 28 29 29 29 29 30 29 28 28 29 29 27 27 28 29 28 26 25 25 25 25 26 27 27 29 30 31 32 32 32 33 32 31 31 31 28 25 22 20 21 22 21 20 19 19 19 18 16
13 15 15 12 10 10 12 14 15 14 15 16 17 17 17 18 18 19 20 21 22 24 25 27 28 28 29 30 30 30 31 32 31 30 30 30 30 29 28 29 30 29 28 27 26 26 25 25 26 27 29 30 32 33 33 33 33 32 30 32 32 30 27 24 22 21 21 20 19 20 19 19 18 16
11 10 7 7 9 12 14 15 15 14 15 16 17 18 19 20 21 22 22 23 24 25 26 27 28 30 31 32 32 33 33 33 33 31 31 32 33 32 31 32 32 31 31 31 31 31 30 29 29 30 31 31 32 33 34 36 36 34 31 32 32 30 27 23 22 21 21 21 20 20 19 18 17 16
6 5 7 8 11 14 14 14 14 15 16 18 19 20 21 22 23 24 24 24 25 26 26 27 29 30 31 32 33 34 35 36 35 34 33 33 33 33 33 34 33 33 34 35 35 34 32 31 31 31 30 29 29 29 31 34 35 34 32 32 32 31 27 23 21 22 22 21 20 19 19 19 18 17
5 7 9 11 12 13 13 13 14 16 18 19 21 23 24 24 25 26 26 26 26 27 28 29 30 30 31 31 31 31 33 34 35 34 34 33 32 32 32 33 34 33 33 34 34 32 30 30 30 30 29 28 27 27 27 29 32 32 31 30 32 31 28 24 23 23 23 22 20 18 18 20 20 18
8 8 11 12 11 12 13 14 15 17 19 21 23 25 27 28 28 28 28 27 28 28 29 30 31 31 31 31 31 30 30 31 31 31 31 31 31 30 31 32 33 33 32 32 30 28 28 29 29 29 28 26 26 27 26 25 26 28 28 29 30 31 28 27 27 27 26 23 20 18 19 21 20 19
8 11 13 12 11 12 13 15 16 18 20 22 24 26 28 29 29 29 28 28 29 29 30 30 31 32 32 32 32 31 30 30 30 30 30 30 29 29 30 30 31 31 31 30 28 26 26 27 28 28 27 26 26 27 26 23 22 23 23 24 27 28 29 29 29 28 26 23 19 17 18 20 20 20
10 13 12 11 11 12 14 15 17 19 21 23 25 27 29 30 30 29 29 29 30 30 30 31 32 32 32 31 31 31 30 29 29 30 29 29 28 28 29 30 30 30 29 28 27 25 25 26 27 27 27 26 27 28 26 24 24 22 20 20 22 25 27 28 27 26 25 21 18 17 18 20 20 19
11 12 10 11 12 13 14 16 18 20 22 24 26 29 30 30 30 29 28 28 29 30 30 31 31 30 30 29 28 28 28 28 28 28 28 28 28 29 30 31 31 31 30 29 28 26 25 25 26 25 26 27 28 27 26 25 24 21 18 18 20 23 25 24 23 24 24 21 19 19 20 20 18 17
11 10 10 10 12 13 14 17 19 21 23 25 27 28 29 29 28 27 27 28 30 30 30 29 29 28 27 26 26 26 26 26 27 27 27 27 28 28 29 29 29 29 29 30 29 28 26 24 23 21 21 22 23 24 25 24 22 19 16 16 19 22 22 21 21 23 23 22 21 22 22 22 20 19
10 10 10 11 12 13 16 19 21 22 25 27 28 28 28 28 28 28 28 29 30 30 29 28 27 27 26 25 24 25 25 26 26 25 25 26 26 27 27 27 27 27 27 29 30 29 25 22 20 19 19 19 21 22 23 23 21 18 15 17 20 20 18 16 16 18 19 20 22 24 25 24 23 24
9 9 10 11 12 15 17 20 22 24 26 28 29 29 28 28 28 28 29 30 29 29 28 27 26 25 25 24 23 23 23 24 24 24 24 23 24 24 24 24 26 27 27 28 28 26 23 19 17 17 17 19 20 21 21 21 20 17 16 18 20 19 17 14 14 15 16 16 18 21 24 25 26 28
9 9 10 11 13 15 18 20 22 24 27 29 29 28 28 28 28 29 30 31 31 29 28 27 26 25 24 23 21 20 20 21 22 22 22 22 22 22 22 21 22 24 25 25 23 21 18 16 14 15 17 17 18 19 20 20 19 17 16 17 19 20 20 19 18 18 18 17 17 18 20 23 24 25
9 9 10 11 14 16 19 22 25 27 29 30 29 28 28 28 29 31 32 32 32 31 29 28 26 24 23 21 20 19 19 19 20 20 20 20 20 20 21 20 19 19 19 18 17 15 14 13 13 14 16 16 16 17 19 19 19 18 18 18 20 22 23 23 22 22 21 20 20 19 20 22 20 17
8 8 10 12 15 18 22 25 27 29 30 30 29 28 28 29 31 33 34 34 33 32 30 28 26 24 22 20 19 18 18 17 17 17 17 17 17 17 17 17 16 15 15 14 13 13 13 14 15 15 15 14 14 16 18 19 19 20 20 20 21 24 25 25 25 25 24 23 22 20 19 20 19 15
Wind_Direction
91 87 79 72 65 43 25 11 359 350 341 336 329 323 323 328 329 328 326 321 308 300 307 307 312 309 297 293 152 163 221 272 275 280 279 273 271 272 273 277 278 274 268 263 261 259 257 255 253 252 254 257 259 259 258 257 256 258 260 262 263 263 262 261 261 262 263 262 261 262 260 257 256 253
98 91 85 85 80 59 44 61 41 12 356 351 344 327 312 304 303 307 308 311 314 309 295 290 290 283 283 289 273 234 218 236 248 254 257 258 261 264 265 267 269 271 271 270 269 266 261 259 257 257 257 258 257 256 256 256 256 258 259 260 262 264 264 263 262 263 263 261 260 260 260 257 256 254
103 92 83 77 67 49 42 51 39 33 43 33 14 357 337 312 295 297 302 305 314 317 302 289 284 282 286 287 280 268 255 253 259 262 263 268 272 274 275 273 271 270 271 273 273 272 268 262 259 259 259 257 254 254 256 257 258 260 261 261 262 263 265 265 265 264 264 263 260 258 257 256 256 255
114 90 81 68 58 40 31 33 19 12 14 10 8 6 2 354 332 322 314 305 310 316 310 304 302 298 294 289 285 282 274 271 274 273 271 272 272 270 273 276 279 280 280 279 279 280 277 268 260 257 258 257 256 255 256 257 259 260 262 263 264 264 266 267 267 267 266 265 263 259 256 255 255 254
270 16 8 5 28 29 26 26 21 11 351 341 351 354 352 355 348 332 318 306 306 312 314 310 312 314 309 303 299 294 289 287 286 285 285 284 278 273 271 270 274 279 285 288 287 287 286 280 268 260 257 257 256 256 256 257 258 260 262 264 265 266 267 268 269 270 269 268 267 264 260 256 253 251
266 264 274 286 320 354 5 5 12 17 302 290 320 328 315 311 305 300 299 296 297 306 314 317 320 325 322 314 311 308 304 303 301 299 299 300 297 290 283 279 275 271 268 271 274 277 278 278 276 272 267 262 259 257 257 257 258 260 262 264 265 266 267 269 270 271 271 272 270 268 267 261 253 247
270 278 277 267 291 320 336 341 351 353 327 307 292 273 275 284 292 301 303 299 300 307 314 317 319 321 316 312 314 316 313 310 308 304 302 304 306 306 304 303 299 289 279 275 275 275 275 276 278 280 279 276 271 264 260 258 258 259 260 262 263 265 266 267 268 270 271 272 272 272 272 268 261 254
253 272 287 284 288 305 320 326 336 340 331 320 298 286 287 288 288 294 292 289 291 295 299 302 304 305 307 310 314 315 311 306 302 300 300 299 297 296 292 286 283 284 283 277 273 271 272 273 275 277 279 281 282 277 270 263 258 257 258 260 261 263 264 265 266 267 268 270 271 273 274 273 271 267
237 256 273 276 275 285 300 310 316 311 297 292 293 292 289 283 273 268 267 268 273 278 284 291 296 300 303 305 307 307 308 308 304 300 300 298 296 296 296 289 284 290 292 286 280 279 278 278 278 279 282 284 286 285 280 273 265 260 258 258 260 262 264 265 265 266 266 267 269 270 272 272 272 272
241 252 262 263 264 271 284 293 295 293 292 295 299 298 294 290 281 272 270 271 276 281 286 291 297 302 304 304 305 307 307 303 299 297 297 300 302 303 306 304 296 294 294 290 288 288 287 287 288 289 291 293 294 294 292 286 277 268 262 259 260 262 264 265 266 266 265 265 266 267 269 270 271 272
254 261 262 260 262 268 278 286 289 292 296 299 301 300 297 292 285 280 278 277 279 284 288 292 296 301 303 302 302 305 304 298 297 298 297 294 290 285 282 281 279 277 274 270 271 274 278 284 288 290 291 290 291 293 295 293 284 275 267 262 261 263 263 264 265 266 266 266 266 265 265 267 268 270
258 265 268 267 267 273 283 290 291 293 297 300 300 297 294 290 287 285 284 282 281 281 283 286 289 292 294 295 296 299 300 298 296 293 287 282 278 274 274 277 283 287 285 282 278 275 275 280 286 289 287 282 284 289 290 289 286 280 273 265 262 261 263 263 263 264 265 265 266 266 266 266 266 268
255 261 267 269 271 280 290 293 293 296 299 301 299 296 293 291 290 289 288 288 288 287 285 283 283 282 282 284 287 288 288 287 287 285 285 286 287 288 289 289 291 295 296 298 298 292 285 284 285 289 289 285 286 289 285 282 284 285 283 276 267 263 263 264 264 266 266 265 265 265 266 267 267 267
256 261 266 271 274 281 287 291 295 297 300 301 300 297 296 293 291 290 291 293 295 295 294 293 290 286 282 281 281 282 283 285 287 288 289 290 290 291 294 294 296 298 294 289 284 278 274 274 275 280 286 288 291 291 287 283 283 283 283 281 277 271 268 267 267 267 267 267 267 266 266 266 267 269
255 263 272 277 278 282 288 294 296 296 298 300 300 300 299 297 296 296 297 299 301 301 300 298 296 292 289 287 282 279 278 276 275 276 275 276 278 282 287 289 290 287 280 275 271 264 255 254 258 261 261 265 275 284 287 286 284 282 279 277 276 275 274 272 271 269 267 267 267 267 267 266 266 268
253 269 280 277 275 283 292 298 299 298 300 302 302 302 303 304 304 304 305 307 308 307 305 301 299 296 295 294 290 285 280 273 268 269 269 270 272 274 277 280 280 278 274 273 273 268 261 257 257 257 254 254 263 273 279 281 281 281 280 279 277 275 274 274 275 274 272 269 268 266 265 266 265 265
254 267 270 265 269 281 291 296 297 297 301 303 301 299 299 301 303 304 306 308 309 308 304 299 297 297 297 296 295 293 289 281 276 273 271 270 270 270 270 270 270 271 272 273 275 274 272 269 265 261 257 256 262 270 274 276 276 277 279 281 280 278 276 276 277 277 277 275 272 269 266 265 264 264
250 241 238 247 260 272 281 286 287 289 292 291 287 287 290 295 298 300 301 304 306 305 301 295 294 295 294 292 293 294 291 286 283 280 277 276 275 274 273 271 270 269 269 274 281 283 283 282 277 271 268 264 265 271 275 275 276 277 279 281 281 280 277 276 276 277 278 279 279 275 270 266 264 263
241 239 245 259 268 271 272 270 271 275 277 275 276 280 286 291 293 294 296 299 304 305 300 293 291 292 293 292 292 291 286 282 280 279 279 280 281 280 280 278 277 275 273 274 280 284 286 289 286 283 281 274 268 267 271 273 275 278 279 279 280 281 278 275 276 276 277 279 281 279 274 269 265 263
252 260 270 276 277 278 277 273 273 277 278 278 280 284 289 293 294 295 297 299 302 303 298 290 286 286 285 284 283 281 278 276 277 276 276 276 278 280 281 281 280 280 279 279 277 278 284 289 291 289 288 282 275 270 268 270 273 276 278 278 277 278 278 278 277 278 279 281 282 280 274 268 265 264
260 268 275 278 277 278 275 272 273 276 276 278 282 286 290 294 295 296 298 299 299 299 295 289 284 279 276 275 275 275 274 274 275 276 277 277 279 281 282 282 282 281 280 279 276 274 276 281 286 290 289 285 282 280 275 273 274 274 274 275 275 275 276 278 279 281 284 284 283 281 274 267 262 262
268 272 272 275 278 275 271 271 274 276 277 279 283 286 289 290 291 294 297 297 294 291 288 285 284 282 280 279 278 277 276 275 273 273 274 277 279 280 281 283 285 283 279 274 270 268 270 271 273 281 285 281 276 279 280 276 275 274 271 270 271 272 273 275 279 284 287 288 286 283 277 269 261 258
279 282 273 269 272 272 271 275 277 276 277 279 281 283 285 286 289 292 293 292 291 290 288 286 285 284 282 281 280 278 276 274 272 270 271 272 273 275 278 281 283 283 281 276 266 264 268 271 268 271 283 287 280 275 279 280 277 274 272 268 268 270 271 274 279 283 286 289 291 289 282 271 260 255
251 260 265 264 266 270 272 274 275 275 277 279 280 281 283 285 287 289 289 288 289 288 288 288 287 287 286 284 283 283 279 275 273 271 271 271 271 271 274 275 275 275 276 276 265 261 265 270 269 263 268 283 286 276 277 287 285 276 271 270 269 271 273 277 282 284 284 287 292 296 293 277 260 253
228 240 263 269 269 271 271 272 274 276 277 278 278 280 282 283 285 287 287 288 288 288 288 289 290 291 292 290 288 288 285 281 278 275 271 270 270 269 270 272 271 270 270 268 260 259 264 269 272 269 264 270 278 275 271 284 289 281 277 279 280 281 283 284 285 286 286 287 291 298 299 286 264 255
233 238 258 270 272 271 271 272 275 277 278 279 281 282 284 285 286 287 288 289 291 292 293 294 293 293 292 290 288 288 286 283 280 275 269 267 267 267 267 269 270 270 271 269 258 254 261 265 267 270 268 267 271 270 265 269 282 290 292 292 290 291 294 293 291 291 290 289 290 295 299 292 275 262
245 242 248 260 267 270 273 276 278 280 282 283 284 286 288 290 291 292 294 296 297 298 299 298 296 295 294 293 292 291 288 285 281 277 271 267 265 266 266 267 268 269 271 272 265 257 259 264 264 265 266 269 272 271 266 266 276 292 299 294 291 295 300 302 299 297 295 292 292 293 295 293 281 267
257 255 254 259 267 273 276 278 280 283 286 289 291 294 298 301 303 305 307 309 307 303 300 298 296 296 296 294 292 292 292 292 289 283 278 273 268 265 264 264 265 267 268 269 269 263 259 262 264 262 261 264 269 271 269 267 269 281 295 297 294 294 298 302 302 301 298 295 292 293 295 293 283 269
269 268 267 272 279 284 286 290 296 302 306 308 308 309 311 313 313 314 316 316 311 304 301 300 298 299 299 296 293 292 293 293 290 287 285 283 278 274 271 267 264 265 266 266 266 264 261 261 262 262 259 259 261 265 268 268 266 269 280 290 292 292 293 296 299 299 298 296 293 292 292 289 281 270
277 282 288 294 296 298 303 309 315 319 319 316 312 312 313 313 313 313 313 310 306 302 300 300 298 298 298 297 295 294 293 291 289 288 288 287 285 283 280 276 271 268 267 264 261 261 262 262 262 263 263 261 260 261 263 267 267 265 267 275 283 288 291 294 294 291 290 292 290 286 283 280 273 264
300 301 299 298 300 308 315 314 312 313 312 309 307 305 304 305 305 304 301 299 297 296 297 297 297 297 296 295 294 292 291 290 289 288 287 286 286 284 280 277 275 272 269 266 262 261 262 260 260 262 263 263 264 264 264 266 268 268 267 269 273 280 285 288 289 289 291 291 285 276 273 269 261 252
297 291 291 296 308 314 306 296 293 292 292 294 296 299 303 307 308 306 303 300 298 296 295 295 295 293 292 291 290 289 288 288 287 287 286 284 284 283 279 276 275 274 273 270 268 268 267 264 262 262 263 264 265 266 265 266 266 267 268 267 268 272 276 278 280 288 296 296 284 270 264 259 251 242
285 288 310 326 312 297 290 289 292 293 294 299 305 308 310 312 312 310 308 304 299 296 294 291 290 290 290 289 288 287 286 285 285 285 284 283 282 281 279 276 275 274 274 274 274 275 275 274 273 271 270 269 267 264 264 263 262 261 262 264 266 268 270 270 275 285 297 299 286 269 257 248 240 231
299 328 340 319 297 291 295 300 303 306 308 310 311 311 310 310 310 310 309 306 303 300 296 293 293 294 294 292 290 288 286 285 284 283 281 281 281 279 277 276 275 273 273 274 276 277 278 280 281 280 278 276 271 264 260 259 259 259 258 259 261 264 265 268 276 286 295 295 282 265 250 239 229 220
3 352 323 306 300 303 306 307 308 309 311 312 313 313 313 314 315 314 313 312 309 305 301 298 298 299 300 299 296 292 289 287 285 284 283 282 280 277 275 275 274 274 274 274 276 277 279 280 281 280 278 276 272 267 262 256 255 256 257 257 258 259 261 265 271 280 287 286 274 257 241 229 219 211
14 339 310 306 309 309 310 312 315 318 320 320 318 316 315 317 319 318 318 317 313 308 304 302 301 302 303 303 301 297 293 290 287 284 282 281 280 278 276 274 274 274 275 275 276 277 277 277 275 272 270 268 266 266 265 260 255 254 256 257 257 256 258 261 265 272 278 275 263 247 234 224 214 208
351 316 308 314 317 315 319 325 328 330 329 324 319 317 317 318 320 321 321 319 314 311 309 307 305 305 306 305 304 300 296 292 289 285 282 280 280 278 276 275 275 274 274 275 276 276 274 272 268 263 262 262 261 261 264 265 261 257 256 256 254 253 253 255 259 264 266 260 247 235 227 219 210 205
323 309 315 324 324 325 331 336 337 334 328 322 319 320 320 321 322 323 323 320 316 314 311 309 308 308 308 306 304 300 296 292 289 285 282 280 278 276 275 276 276 275 275 276 277 276 274 269 263 258 256 256 257 259 262 264 263 261 261 258 251 246 245 247 250 252 248 238 227 220 216 213 208 201
308 311 322 327 330 335 336 337 336 331 324 321 321 322 322 323 323 325 325 325 322 319 316 312 311 310 309 307 304 301 297 294 289 285 283 281 277 275 273 272 272 273 274 275 276 276 273 269 264 258 254 253 255 257 259 262 264 265 265 259 247 238 236 236 237 236 230 222 215 208 201 200 199 190
306 317 329 333 336 335 333 335 336 332 328 327 327 326 326 326 326 328 329 328 327 324 321 317 316 314 312 310 307 303 299 294 291 288 285 282 279 277 274 272 271 271 271 272 274 273 272 270 268 264 260 259 260 259 258 259 261 264 261 250 237 232 233 233 230 226 221 217 213 204 193 189 184 175
312 325 335 336 334 334 335 336 335 333 333 333 333 333 333 331 330 331 331 330 329 328 324 322 321 318 315 312 309 305 300 295 291 288 286 283 280 277 274 272 270 269 269 269 269 269 271 274 273 269 266 263 260 256 251 250 251 252 245 232 223 223 230 237 235 231 226 219 209 198 190 185 179 171
313 328 334 329 329 336 340 338 334 335 337 337 336 335 335 334 334 335 334 334 334 333 330 328 326 323 319 316 312 307 302 297 293 290 287 284 282 280 276 272 267 264 265 265 266 268 272 272 268 261 257 255 251 245 240 238 240 240 234 223 213 208 211 222 229 232 230 225 216 204 192 184 178 174
318 332 330 325 332 342 345 343 342 343 341 338 336 336 337 337 338 340 340 340 339 337 335 333 331 327 324 320 317 311 304 298 294 291 287 285 283 280 278 274 269 266 264 265 267 269 266 260 253 249 247 248 245 237 233 232 232 229 227 221 209 199 199 206 213 216 217 218 219 217 208 198 189 184
326 333 330 332 343 349 350 349 350 349 345 341 339 339 340 342 344 346 346 344 343 341 339 337 334 331 329 326 321 314 307 301 297 294 291 289 286 282 277 273 270 269 267 266 268 265 254 244 244 243 241 241 237 229 226 226 223 220 220 220 211 202 199 201 202 202 204 205 208 212 213 208 203 199
332 331 335 347 355 356 355 355 353 350 347 345 343 344 346 348 348 348 348 348 347 345 342 340 338 336 334 330 324 318 312 307 302 298 297 296 291 285 278 273 268 266 264 262 261 256 243 237 239 239 236 233 229 224 223 223 220 215 214 212 207 202 198 196 194 193 192 195 201 206 207 205 203 198